Location: Delmar
(42.6220°N, 73.8326°W)
Time: 04:45:17
(UTC+00:00)

Cosmos 968 Rocket - Pass Details

Date: 29 October 2020
Orbit: 741 x 770 km, 74.0° (Epoch: 27 November)

Event Time Altitude Azimuth Distance (km) Brightness Sun altitude
Rises 23:17:49 0° 338° (NNW) 3,234 7.0 -16.4°
Reaches altitude 10° 23:20:12 10° 336° (NNW) 2,300 6.2 -16.8°
Maximum altitude 23:25:24 74° 253° (WSW) 788 3.7 -17.8°
Drops below altitude 10° 23:30:31 10° 169° (SSE) 2,264 5.8 -18.7°
Sets 23:32:51 0° 167° (SSE) 3,179 6.6 -19.2°
